SCP
3 3 3 2 2 1 1 1 1 1 1 1 1 0 0 0 0 0 1 1 1 0 0 0 0 0 0 0 0 0 0 0 0 0 0 0 0 0 0 0 0 1 1
3 3 3 2 1 1 1 1 0 0 1 1 1 0 0 0 0 0 0 1 1 0 0 0 0 0 0 0 0 0 0 0 0 0 0 0 0 0 0 0 1 1 1
3 3 3 2 1 1 1 0 0 0 0 1 0 0 0 0 0 0 0 0 0 0 0 0 0 0 0 0 0 0 0 0 0 0 0 0 0 0 0 0 1 1 1
3 3 3 2 1 1 1 0 0 0 0 0 0 0 0 0 0 0 0 0 0 0 0 0 0 0 0 0 0 0 0 0 0 0 0 0 0 0 0 0 0 0 0
2 3 2 2 1 1 1 0 0 0 0 0 0 0 0 0 0 0 0 0 0 0 0 0 0 0 0 0 0 0 0 0 0 0 0 0 0 0 0 0 0 0 0
2 2 2 1 0 0 0 0 0 0 0 0 0 0 0 0 0 0 0 0 0 0 0 0 0 0 0 0 0 0 0 0 0 0 0 0 0 0 0 0 0 0 0
2 1 1 0 0 0 0 0 0 0 0 0 0 0 0 0 0 0 0 0 0 0 0 0 0 0 0 0 0 0 0 0 0 0 0 0 0 0 0 0 0 0 0
2 1 0 0 0 0 0 0 0 0 0 0 0 0 0 0 0 0 0 0 0 0 0 0 0 0 0 0 0 0 0 0 0 0 0 0 0 0 0 0 0 0 0
2 1 0 0 0 0 0 0 0 0 0 0 0 0 0 0 0 0 0 0 0 0 0 0 0 0 0 0 0 0 0 0 0 0 0 0 0 0 0 0 0 0 0
1 1 0 0 0 0 0 0 0 0 0 0 0 0 0 0 0 0 0 0 0 0 0 0 0 0 0 0 0 0 0 0 0 0 0 0 0 0 0 0 0 0 0
0 0 0 0 0 0 0 0 0 0 0 0 0 0 0 0 0 0 0 0 0 0 0 0 0 0 0 0 0 0 0 0 0 0 0 0 0 0 0 0 0 0 0
0 0 0 0 0 0 0 0 0 0 0 0 0 0 0 0 0 0 0 0 0 0 0 0 0 0 0 0 0 0 0 0 0 0 0 0 0 0 0 0 0 0 0
0 0 0 0 0 0 0 0 0 0 0 0 0 0 0 0 0 0 0 0 0 0 0 0 0 0 0 0 0 0 0 0 0 0 0 0 0 0 0 0 0 0 0
0 0 0 0 0 0 0 0 0 0 0 0 0 0 0 0 0 0 0 0 0 0 0 0 0 0 0 0 0 0 0 0 0 0 0 0 0 0 0 0 0 0 0
0 0 0 0 0 0 0 0 0 0 0 0 0 0 0 0 0 0 0 0 0 0 0 0 0 0 0 0 0 0 0 0 0 0 0 0 0 0 0 0 0 0 0
0 0 0 0 0 0 0 0 0 0 0 0 0 0 0 0 0 0 0 0 0 0 0 0 0 0 0 0 0 0 0 0 0 0 0 0 0 0 0 0 0 0 0
0 0 0 0 0 0 0 0 0 0 0 0 0 0 0 0 0 0 0 0 0 0 0 0 0 0 0 0 0 0 0 0 0 0 0 0 0 0 0 0 0 0 0
0 0 0 0 0 0 0 0 0 0 0 0 0 0 0 0 0 0 0 0 0 0 0 0 0 0 0 0 0 0 0 0 0 0 0 0 0 0 0 0 0 0 0
0 0 0 0 0 0 0 0 0 0 0 0 0 0 0 0 0 0 0 0 0 0 0 0 0 0 0 0 0 0 0 0 0 0 0 0 0 0 0 0 0 0 0
0 0 0 0 0 0 0 0 0 0 0 0 0 0 0 0 0 0 0 0 0 0 0 0 0 0 0 0 0 0 0 0 0 0 0 0 0 0 0 0 0 0 0
0 0 0 0 0 0 0 0 0 0 0 0 0 0 0 0 0 0 0 0 0 0 0 0 0 0 0 0 0 0 0 0 0 0 0 0 0 0 0 0 0 0 0
0 0 0 0 0 0 0 0 0 0 0 0 0 0 0 0 0 0 0 0 0 0 0 0 0 0 0 0 0 0 0 0 0 0 0 0 0 0 0 0 0 0 0
0 0 0 0 0 0 0 0 0 0 0 0 0 0 0 0 0 0 0 0 0 0 0 0 0 0 0 0 0 0 0 0 0 0 0 0 0 0 0 0 0 0 0
0 0 0 0 0 0 0 0 0 0 0 0 0 0 0 0 0 0 0 0 0 0 0 0 0 0 0 0 0 0 0 0 0 0 0 0 0 0 0 0 0 0 0
0 0 0 0 0 0 0 0 0 0 0 0 0 0 0 0 0 0 0 0 0 0 0 0 0 0 0 0 0 0 0 0 0 0 0 0 0 0 0 0 0 0 0
0 0 0 0 0 0 0 0 0 0 0 0 0 0 0 0 0 0 0 0 0 0 0 0 0 0 0 0 0 0 0 0 0 0 0 0 0 0 0 0 0 0 0
Wind_Speed
5 6 6 7 6 5 5 5 6 5 5 3 3 2 2 1 2 2 2 2 2 2 3 2 2 2 2 1 1 1 2 2 1 1 2 2 2 2 2 2 2 3 3
6 6 6 6 5 5 4 5 5 5 4 3 2 2 3 2 1 1 2 2 2 2 2 3 2 1 2 2 2 2 1 1 2 1 1 2 3 2 1 1 1 2 2
9 8 7 6 6 6 6 5 5 5 5 4 3 3 3 3 2 2 2 3 2 1 2 2 2 1 1 1 1 1 2 1 1 1 1 1 1 2 2 2 1 2 1
7 7 7 7 6 5 5 5 5 5 4 4 4 4 3 2 1 1 1 2 3 2 2 2 2 2 1 1 0 1 1 1 0 1 0 1 1 1 2 2 2 3 2
7 7 8 8 7 6 5 5 5 4 4 4 5 5 4 2 1 2 3 3 3 3 3 3 2 2 1 1 1 1 1 1 1 1 0 0 0 1 1 3 3 3 2
7 6 6 7 6 6 5 5 5 4 4 4 5 5 5 4 3 2 2 2 2 2 3 2 2 2 1 0 0 0 0 0 1 1 1 1 1 1 2 3 3 3 3
7 7 8 8 8 8 7 6 6 5 4 5 4 4 5 5 4 3 2 1 0 1 1 1 1 1 0 0 0 0 0 1 1 1 1 2 2 1 2 2 2 2 3
8 9 9 9 9 9 8 7 7 5 5 5 4 4 4 3 2 3 2 2 1 1 1 1 1 1 1 0 0 0 1 1 1 2 2 2 2 2 2 2 2 2 2
9 9 9 9 9 9 9 9 8 6 5 5 4 4 4 4 3 3 2 2 1 1 1 1 1 1 1 1 0 1 1 1 2 2 2 2 2 2 3 3 3 3 3
8 8 8 9 8 8 8 7 7 7 6 5 5 4 4 4 3 3 3 2 2 1 1 1 1 1 1 1 1 1 2 2 2 2 2 2 2 2 2 3 3 4 4
10 9 8 8 7 7 7 7 7 6 5 6 5 4 4 4 3 3 3 2 2 2 2 2 2 2 2 2 2 3 3 3 3 3 3 4 3 3 2 2 2 3 4
9 8 8 8 7 8 7 7 7 7 6 6 5 5 4 3 3 3 3 2 2 2 2 2 2 3 3 2 3 4 3 3 4 4 4 5 3 4 3 3 4 4 4
8 7 7 8 9 8 8 7 7 7 6 6 6 5 4 4 4 4 3 3 3 3 2 2 3 3 3 3 4 4 4 4 5 5 5 6 5 5 4 4 5 4 4
9 9 8 8 8 8 8 8 7 6 7 6 6 6 5 5 4 4 3 3 3 3 3 3 3 4 4 4 4 4 5 5 5 5 6 6 6 7 6 5 6 5 5
9 10 10 9 8 8 7 7 7 6 7 7 6 6 5 4 3 3 3 3 3 4 3 3 4 4 4 4 5 5 5 5 6 6 6 6 8 10 8 6 6 5 5
12 11 10 10 10 10 9 8 7 7 7 7 7 5 4 4 4 4 3 3 4 4 3 4 5 5 5 6 8 6 5 6 6 7 7 7 8 9 9 10 9 8 7
13 13 13 12 12 11 10 10 9 7 7 7 6 6 5 5 4 4 3 4 4 4 4 5 5 6 7 10 10 9 6 6 7 7 7 6 6 7 7 8 9 8 10
12 12 11 10 9 8 8 8 7 8 8 7 6 6 5 5 4 4 4 4 3 4 4 5 5 6 8 10 10 9 6 6 7 7 7 7 8 7 7 7 7 8 8
12 12 11 10 9 9 9 9 8 7 7 7 7 6 6 6 5 4 5 4 3 4 4 5 5 6 9 10 10 7 4 5 7 7 7 7 8 10 8 7 8 9 8
7 8 8 8 9 8 9 10 9 8 9 8 8 6 6 6 6 6 5 3 3 4 5 6 6 7 8 10 10 7 3 5 6 6 6 9 10 10 9 7 7 9 9
7 8 9 9 9 10 10 10 9 10 10 7 6 6 6 6 6 4 4 3 4 4 4 6 6 7 8 10 10 8 4 5 6 6 6 6 9 10 10 9 9 11 9
7 8 8 7 6 9 10 10 10 9 7 6 6 6 5 5 4 4 4 3 3 4 5 5 7 6 6 7 8 9 8 7 6 7 7 7 9 10 11 9 10 12 10
7 7 8 8 7 8 10 11 9 7 7 6 6 5 4 4 4 4 4 3 3 4 5 5 6 6 5 5 9 10 10 9 7 7 9 10 11 10 9 10 12 9 6
6 7 8 8 7 7 8 8 6 7 7 7 6 4 4 4 4 3 4 4 4 5 5 5 6 6 6 6 5 4 5 6 6 6 7 9 10 9 9 9 7 6 6
4 6 7 8 7 7 6 5 6 7 7 6 5 4 4 4 4 4 5 6 6 7 6 6 6 6 7 7 7 5 5 4 4 4 3 4 4 5 5 5 5 5 5
5 5 5 5 5 6 5 5 6 7 6 5 4 4 4 3 3 4 4 8 9 11 12 12 10 7 10 12 11 10 10 9 6 3 4 5 6 6 6 6 6 5 5
Wind_Direction
157 143 137 132 126 124 133 137 134 131 127 118 117 113 102 76 56 50 56 73 91 100 101 96 85 83 84 70 68 84 57 23 9 32 334 314 296 282 273 283 276 262 250
145 149 140 135 136 145 142 133 133 131 130 129 133 131 123 105 85 41 44 50 76 110 129 121 113 102 89 61 54 73 81 22 32 78 54 343 340 331 321 293 266 279 275
164 159 150 149 149 154 156 150 138 131 126 124 113 96 74 57 45 31 25 13 39 89 113 126 122 114 110 101 70 88 113 82 16 51 124 137 270 307 318 327 344 339 306
163 159 153 155 163 160 152 144 139 131 128 129 127 127 125 124 118 72 40 23 32 57 94 121 129 122 113 108 29 108 123 130 85 348 14 181 178 226 313 319 337 342 333
173 171 166 164 163 154 150 144 136 131 128 122 121 116 112 119 104 79 69 48 31 38 61 88 100 99 94 89 55 75 103 147 171 193 212 70 75 179 222 290 318 328 310
174 168 162 152 149 149 148 140 139 139 135 127 123 131 136 134 122 106 89 53 29 24 41 77 87 95 94 78 70 81 106 173 192 199 196 188 193 203 207 249 281 296 296
174 169 167 164 161 159 158 154 153 150 147 139 139 145 146 144 145 147 145 135 76 18 356 50 59 61 50 26 99 75 308 244 230 229 224 218 222 208 199 223 261 278 293
181 180 180 174 170 166 163 164 163 161 160 155 155 150 147 144 152 164 169 177 191 224 263 312 314 305 312 331 100 272 281 266 261 257 240 235 237 217 208 208 219 272 286
185 185 180 175 171 171 174 174 169 168 170 168 160 159 161 163 172 177 180 191 214 238 244 265 281 292 294 287 229 258 277 277 264 264 256 248 249 231 226 221 212 225 266
185 185 181 179 177 175 172 170 170 173 172 169 172 173 177 177 174 171 190 206 229 247 253 270 278 291 296 283 254 264 266 265 268 256 257 259 257 252 238 227 224 221 236
188 187 184 177 169 164 166 170 171 168 172 175 177 171 176 175 175 190 206 208 219 229 238 251 262 269 271 267 254 260 260 261 272 276 266 268 263 259 254 236 229 227 223
187 181 173 164 165 170 173 175 175 177 180 175 171 176 178 175 184 208 216 211 225 236 239 249 259 265 264 260 253 263 262 257 265 270 269 272 269 260 256 245 243 241 229
176 169 167 172 176 177 177 179 181 183 177 169 171 178 184 185 198 212 215 216 226 240 246 245 254 264 268 263 257 254 260 260 260 261 260 267 266 264 259 253 252 251 249
177 175 178 182 181 180 179 180 184 179 173 171 174 185 194 196 204 209 215 223 227 240 252 252 254 261 265 263 261 257 259 263 265 261 257 259 254 256 260 259 255 252 254
183 185 185 185 180 178 180 179 178 175 171 171 181 197 197 194 200 211 223 233 239 245 249 257 264 266 264 257 255 254 258 261 269 270 263 259 259 255 252 254 253 247 249
193 191 187 182 184 185 182 177 179 177 168 178 192 191 184 191 204 215 223 235 249 254 253 254 260 268 266 271 270 259 256 259 262 269 273 273 270 271 269 266 261 242 240
192 189 189 189 189 186 177 179 181 168 170 184 190 187 187 196 209 215 218 234 245 248 256 259 259 264 270 274 277 271 258 256 258 260 267 274 275 277 275 277 277 264 250
192 192 189 187 184 174 169 166 159 166 176 183 190 190 187 199 206 209 227 238 240 244 253 261 262 266 273 275 277 278 265 259 259 258 258 262 272 272 270 275 277 273 266
189 188 184 179 170 168 165 156 161 169 177 188 195 194 190 196 201 215 232 234 235 247 250 258 262 266 276 278 278 277 262 262 266 264 258 256 265 270 269 267 270 276 276
176 170 160 153 162 168 157 157 169 176 192 197 198 193 189 193 204 217 225 223 226 245 258 265 263 261 269 277 279 271 242 260 269 271 265 256 257 267 268 260 259 266 271
162 154 152 164 174 162 157 167 176 194 200 190 185 185 188 197 207 214 217 224 235 253 262 270 273 266 263 273 275 266 234 243 263 271 272 266 259 264 267 258 251 252 262
149 153 159 167 160 157 162 174 194 199 180 172 178 187 193 202 204 207 224 226 230 253 266 273 282 276 268 263 270 268 254 239 247 262 267 269 270 271 271 265 256 258 261
156 158 162 159 159 167 171 185 198 173 162 168 183 193 198 205 205 210 223 228 225 239 258 262 271 280 280 272 265 266 265 253 243 256 263 271 278 281 274 263 263 263 252
161 157 154 161 172 177 183 191 171 157 162 177 190 192 197 214 219 221 220 223 230 238 250 256 262 271 278 278 273 264 264 262 256 262 273 279 277 269 265 271 267 252 242
151 156 162 167 172 168 178 173 160 158 168 181 190 196 205 214 227 232 229 227 231 224 231 247 248 256 270 269 260 256 259 254 255 271 276 276 281 282 277 272 270 263 250
135 135 140 146 150 153 168 169 165 163 168 184 197 204 210 217 227 244 265 246 242 250 242 242 244 248 249 267 277 269 261 260 249 230 256 270 274 275 276 280 283 275 261